| time (UTC) | temp F | wind direction | speed MPH | gust MPH | rain 1hr in | rain 24hr in | rain mn in | humidity % | barometer mb |
| 20260905200002 | 95 | 50 | 1.0 | 5.0 | 0.00 | 0.07 | 0.07 | 61 | 1011.9 |
| 20260905195559 | 94 | 242 | 2.0 | 6.0 | 0.00 | 0.07 | 0.07 | 59 | 1012.0 |
| 20260905195400 | 94 | 241 | 2.0 | 6.0 | 0.00 | 0.07 | 0.07 | 59 | 1012.0 |
| 20260905195000 | 94 | 194 | 2.0 | 6.0 | 0.00 | 0.07 | 0.07 | 59 | 1012.1 |
| 20260905194759 | 94 | 201 | 2.0 | 6.0 | 0.00 | 0.07 | 0.07 | 58 | 1012.1 |
| 20260905194359 | 94 | 150 | 2.0 | 4.0 | 0.00 | 0.07 | 0.07 | 60 | 1012.1 |
| 20260905194200 | 94 | 44 | 2.0 | 4.0 | 0.00 | 0.07 | 0.07 | 58 | 1012.2 |
| 20260905194000 | 94 | 349 | 2.0 | 5.0 | 0.00 | 0.07 | 0.07 | 61 | 1012.2 |
| 20260905193759 | 94 | 291 | 2.0 | 5.0 | 0.00 | 0.07 | 0.07 | 64 | 1012.2 |
| 20260905193559 | 94 | 246 | 2.0 | 5.0 | 0.00 | 0.07 | 0.07 | 62 | 1012.3 |
| 20260905193359 | 94 | 147 | 2.0 | 5.0 | 0.00 | 0.07 | 0.07 | 59 | 1012.3 |
| 20260905193159 | 94 | 158 | 2.0 | 4.0 | 0.00 | 0.07 | 0.07 | 60 | 1012.4 |
| 20260905192959 | 94 | 126 | 2.0 | 7.0 | 0.00 | 0.07 | 0.07 | 60 | 1012.4 |
| 20260905192559 | 93 | 154 | 2.0 | 7.0 | 0.00 | 0.07 | 0.07 | 61 | 1012.5 |
| 20260905192359 | 93 | 139 | 2.0 | 7.0 | 0.00 | 0.07 | 0.07 | 61 | 1012.6 |
| 20260905192159 | 93 | 250 | 2.0 | 7.0 | 0.00 | 0.07 | 0.07 | 61 | 1012.6 |
| 20260905191759 | 93 | 312 | 2.0 | 5.0 | 0.00 | 0.07 | 0.07 | 62 | 1012.6 |
| 20260905191559 | 93 | 293 | 1.0 | 5.0 | 0.00 | 0.07 | 0.07 | 60 | 1012.6 |
| 20260905191159 | 93 | 343 | 1.0 | 4.0 | 0.00 | 0.07 | 0.07 | 60 | 1012.7 |
| 20260905190959 | 93 | 13 | 1.0 | 5.0 | 0.00 | 0.07 | 0.07 | 59 | 1012.7 |
| 20260905190759 | 93 | 196 | 1.0 | 5.0 | 0.00 | 0.07 | 0.07 | 62 | 1012.7 |
| 20260905190600 | 93 | 257 | 2.0 | 5.0 | 0.00 | 0.07 | 0.07 | 59 | 1012.7 |
| 20260905190359 | 93 | 150 | 2.0 | 5.0 | 0.00 | 0.07 | 0.07 | 60 | 1012.8 |
| 20260905190200 | 93 | 155 | 2.0 | 5.0 | 0.00 | 0.07 | 0.07 | 60 | 1012.8 |
| 20260905190002 | 92 | 203 | 2.0 | 5.0 | 0.00 | 0.07 | 0.07 | 61 | 1012.8 |
| 20260905185800 | 92 | 89 | 2.0 | 5.0 | 0.00 | 0.07 | 0.07 | 61 | 1012.8 |
| 20260905185559 | 92 | 311 | 2.0 | 5.0 | 0.00 | 0.07 | 0.07 | 62 | 1012.8 |
| 20260905185359 | 92 | 328 | 2.0 | 5.0 | 0.00 | 0.07 | 0.07 | 62 | 1012.8 |
| 20260905185000 | 92 | 307 | 2.0 | 6.0 | 0.00 | 0.07 | 0.07 | 61 | 1012.9 |
| 20260905184759 | 92 | 304 | 2.0 | 6.0 | 0.00 | 0.07 | 0.07 | 62 | 1013.0 |
| 20260905184359 | 92 | 271 | 2.0 | 6.0 | 0.00 | 0.07 | 0.07 | 60 | 1013.1 |
| 20260905183959 | 92 | 242 | 3.0 | 6.0 | 0.00 | 0.07 | 0.07 | 64 | 1013.2 |
| 20260905183801 | 92 | 236 | 3.0 | 6.0 | 0.00 | 0.07 | 0.07 | 63 | 1013.2 |
| 20260905183559 | 92 | 168 | 3.0 | 6.0 | 0.00 | 0.07 | 0.07 | 62 | 1013.2 |
| 20260905183359 | 92 | 219 | 3.0 | 6.0 | 0.00 | 0.07 | 0.07 | 60 | 1013.2 |
| 20260905183201 | 92 | 218 | 2.0 | 6.0 | 0.00 | 0.07 | 0.07 | 61 | 1013.2 |
| 20260905182959 | 92 | 231 | 3.0 | 6.0 | 0.00 | 0.07 | 0.07 | 64 | 1013.2 |
| 20260905182800 | 92 | 77 | 3.0 | 6.0 | 0.00 | 0.07 | 0.07 | 65 | 1013.2 |
| 20260905182600 | 92 | 46 | 3.0 | 6.0 | 0.00 | 0.07 | 0.07 | 61 | 1013.2 |
| 20260905182400 | 92 | 127 | 3.0 | 6.0 | 0.00 | 0.07 | 0.07 | 60 | 1013.2 |
| 20260905182202 | 92 | 121 | 3.0 | 6.0 | 0.00 | 0.07 | 0.07 | 60 | 1013.3 |
| 20260905181959 | 92 | 181 | 2.0 | 6.0 | 0.00 | 0.07 | 0.07 | 62 | 1013.4 |
| 20260905181759 | 92 | 148 | 2.0 | 6.0 | 0.00 | 0.07 | 0.07 | 62 | 1013.4 |
| 20260905181559 | 91 | 37 | 2.0 | 5.0 | 0.00 | 0.07 | 0.07 | 60 | 1013.4 |
| 20260905181359 | 92 | 30 | 1.0 | 5.0 | 0.00 | 0.07 | 0.07 | 60 | 1013.5 |
| 20260905181159 | 91 | 205 | 1.0 | 4.0 | 0.00 | 0.07 | 0.07 | 62 | 1013.4 |
| 20260905180759 | 91 | 239 | 1.0 | 5.0 | 0.00 | 0.07 | 0.07 | 61 | 1013.5 |
| 20260905180159 | 91 | 332 | 3.0 | 6.0 | 0.00 | 0.07 | 0.07 | 61 | 1013.5 |
| 20260905180004 | 91 | 257 | 3.0 | 6.0 | 0.00 | 0.07 | 0.07 | 62 | 1013.5 |
| 20260905175800 | 91 | 278 | 3.0 | 6.0 | 0.00 | 0.07 | 0.07 | 65 | 1013.5 |
| 20260905175359 | 90 | 201 | 4.0 | 6.0 | 0.00 | 0.07 | 0.07 | 62 | 1013.5 |
| 20260905174959 | 90 | 149 | 4.0 | 11.0 | 0.00 | 0.07 | 0.07 | 64 | 1013.6 |
| 20260905174759 | 90 | 115 | 4.0 | 11.0 | 0.00 | 0.07 | 0.07 | 64 | 1013.6 |
| 20260905174401 | 90 | 136 | 3.0 | 11.0 | 0.00 | 0.07 | 0.07 | 63 | 1013.6 |
| 20260905174000 | 90 | 136 | 3.0 | 8.0 | 0.00 | 0.07 | 0.07 | 63 | 1013.7 |
| 20260905173759 | 89 | 160 | 4.0 | 8.0 | 0.00 | 0.07 | 0.07 | 64 | 1013.7 |
| 20260905173359 | 89 | 245 | 5.0 | 8.0 | 0.00 | 0.07 | 0.07 | 63 | 1013.7 |
| 20260905173200 | 89 | 137 | 4.0 | 8.0 | 0.00 | 0.07 | 0.07 | 64 | 1013.7 |
| 20260905172959 | 89 | 182 | 4.0 | 8.0 | 0.00 | 0.07 | 0.07 | 64 | 1013.7 |
| 20260905172759 | 89 | 156 | 4.0 | 8.0 | 0.00 | 0.07 | 0.07 | 64 | 1013.7 |
| 20260905172559 | 89 | 147 | 4.0 | 8.0 | 0.00 | 0.07 | 0.07 | 65 | 1013.8 |
| 20260905172359 | 89 | 153 | 4.0 | 7.0 | 0.00 | 0.07 | 0.07 | 66 | 1013.8 |
| 20260905172159 | 89 | 197 | 4.0 | 7.0 | 0.00 | 0.07 | 0.07 | 68 | 1013.8 |
| 20260905172001 | 89 | 118 | 4.0 | 6.0 | 0.00 | 0.07 | 0.07 | 65 | 1013.8 |
| 20260905171759 | 89 | 120 | 4.0 | 6.0 | 0.00 | 0.07 | 0.07 | 65 | 1013.9 |
| 20260905171559 | 89 | 124 | 4.0 | 7.0 | 0.00 | 0.07 | 0.07 | 65 | 1013.9 |
| 20260905171359 | 89 | 172 | 4.0 | 7.0 | 0.00 | 0.07 | 0.07 | 65 | 1013.9 |
| 20260905170959 | 88 | 200 | 4.0 | 8.0 | 0.00 | 0.07 | 0.07 | 64 | 1013.9 |
| 20260905170759 | 88 | 176 | 4.0 | 8.0 | 0.00 | 0.07 | 0.07 | 65 | 1013.8 |
| 20260905170559 | 88 | 255 | 4.0 | 8.0 | 0.00 | 0.07 | 0.07 | 66 | 1013.8 |
| 20260905170359 | 88 | 209 | 5.0 | 7.0 | 0.00 | 0.07 | 0.07 | 67 | 1013.8 |
| 20260905170159 | 88 | 200 | 5.0 | 9.0 | 0.00 | 0.07 | 0.07 | 67 | 1013.9 |
| 20260905170003 | 88 | 206 | 5.0 | 10.0 | 0.00 | 0.07 | 0.07 | 68 | 1013.9 |
| 20260905165759 | 88 | 215 | 4.0 | 10.0 | 0.00 | 0.07 | 0.07 | 66 | 1014.0 |
| 20260905165559 | 88 | 181 | 4.0 | 10.0 | 0.00 | 0.07 | 0.07 | 66 | 1014.0 |
| 20260905165359 | 88 | 106 | 4.0 | 10.0 | 0.00 | 0.07 | 0.07 | 67 | 1014.1 |
| 20260905165159 | 88 | 96 | 4.0 | 10.0 | 0.00 | 0.07 | 0.07 | 67 | 1014.2 |
| 20260905165001 | 88 | 150 | 4.0 | 9.0 | 0.00 | 0.07 | 0.07 | 67 | 1014.2 |
| 20260905164759 | 88 | 137 | 5.0 | 9.0 | 0.00 | 0.07 | 0.07 | 68 | 1014.3 |
| 20260905164600 | 88 | 141 | 5.0 | 9.0 | 0.00 | 0.07 | 0.07 | 66 | 1014.3 |
| 20260905164358 | 87 | 117 | 4.0 | 8.0 | 0.00 | 0.07 | 0.07 | 68 | 1014.4 |
| 20260905164200 | 87 | 180 | 4.0 | 8.0 | 0.00 | 0.07 | 0.07 | 68 | 1014.4 |
| 20260905163958 | 87 | 143 | 4.0 | 7.0 | 0.00 | 0.07 | 0.07 | 68 | 1014.4 |
| 20260905163758 | 87 | 124 | 4.0 | 7.0 | 0.00 | 0.07 | 0.07 | 68 | 1014.4 |
| 20260905163559 | 87 | 139 | 4.0 | 7.0 | 0.00 | 0.07 | 0.07 | 67 | 1014.5 |
| 20260905163358 | 87 | 125 | 4.0 | 8.0 | 0.00 | 0.07 | 0.07 | 66 | 1014.5 |
| 20260905163200 | 87 | 191 | 4.0 | 8.0 | 0.00 | 0.07 | 0.07 | 68 | 1014.6 |
| 20260905162959 | 87 | 162 | 3.0 | 8.0 | 0.00 | 0.07 | 0.07 | 70 | 1014.6 |
| 20260905162759 | 87 | 144 | 4.0 | 8.0 | 0.00 | 0.07 | 0.07 | 70 | 1014.7 |
| 20260905162558 | 87 | 115 | 3.0 | 8.0 | 0.00 | 0.07 | 0.07 | 69 | 1014.6 |
| 20260905162359 | 86 | 162 | 3.0 | 6.0 | 0.00 | 0.07 | 0.07 | 71 | 1014.6 |
| 20260905161959 | 86 | 144 | 4.0 | 9.0 | 0.00 | 0.07 | 0.07 | 71 | 1014.7 |
| 20260905161759 | 86 | 113 | 4.0 | 9.0 | 0.00 | 0.07 | 0.07 | 70 | 1014.6 |
| 20260905161159 | 85 | 132 | 6.0 | 9.0 | 0.00 | 0.07 | 0.07 | 70 | 1014.7 |
| 20260905160959 | 85 | 135 | 6.0 | 9.0 | 0.00 | 0.07 | 0.07 | 70 | 1014.8 |
| 20260905160759 | 85 | 110 | 5.0 | 11.0 | 0.00 | 0.07 | 0.07 | 70 | 1014.8 |
| 20260905160558 | 85 | 134 | 5.0 | 11.0 | 0.00 | 0.07 | 0.07 | 71 | 1014.8 |
| 20260905160359 | 85 | 195 | 4.0 | 11.0 | 0.00 | 0.07 | 0.07 | 70 | 1014.7 |
| 20260905160158 | 85 | 169 | 3.0 | 11.0 | 0.00 | 0.07 | 0.07 | 71 | 1014.7 |
| 20260905160002 | 85 | 118 | 3.0 | 11.0 | 0.00 | 0.07 | 0.07 | 73 | 1014.7 |
| 20260905155759 | 85 | 124 | 3.0 | 6.0 | 0.00 | 0.07 | 0.07 | 71 | 1014.6 |
| 20260905155559 | 85 | 113 | 3.0 | 6.0 | 0.00 | 0.07 | 0.07 | 72 | 1014.6 |
| 20260905155359 | 85 | 51 | 3.0 | 6.0 | 0.00 | 0.07 | 0.07 | 72 | 1014.6 |
| 20260905155159 | 85 | 102 | 3.0 | 7.0 | 0.00 | 0.07 | 0.07 | 72 | 1014.7 |
| 20260905154959 | 85 | 112 | 4.0 | 7.0 | 0.00 | 0.07 | 0.07 | 71 | 1014.7 |
| 20260905154759 | 84 | 134 | 4.0 | 10.0 | 0.00 | 0.07 | 0.07 | 71 | 1014.8 |
| 20260905154559 | 84 | 101 | 5.0 | 10.0 | 0.00 | 0.07 | 0.07 | 73 | 1014.8 |
| 20260905154358 | 84 | 73 | 5.0 | 10.0 | 0.00 | 0.07 | 0.07 | 73 | 1014.8 |
| 20260905154158 | 84 | 111 | 6.0 | 10.0 | 0.00 | 0.07 | 0.07 | 73 | 1014.8 |
| 20260905153959 | 84 | 92 | 5.0 | 10.0 | 0.00 | 0.07 | 0.07 | 72 | 1014.8 |
| 20260905153800 | 84 | 143 | 5.0 | 9.0 | 0.00 | 0.07 | 0.07 | 72 | 1014.8 |
| 20260905153358 | 84 | 112 | 4.0 | 9.0 | 0.00 | 0.07 | 0.07 | 74 | 1014.8 |
| 20260905153159 | 84 | 133 | 4.0 | 8.0 | 0.00 | 0.07 | 0.07 | 73 | 1014.8 |
| 20260905152959 | 83 | 154 | 4.0 | 10.0 | 0.00 | 0.07 | 0.07 | 73 | 1014.8 |
| 20260905152759 | 83 | 154 | 4.0 | 10.0 | 0.00 | 0.07 | 0.07 | 74 | 1014.9 |
| 20260905152559 | 83 | 122 | 4.0 | 10.0 | 0.00 | 0.07 | 0.07 | 74 | 1014.9 |
| 20260905152359 | 83 | 157 | 4.0 | 10.0 | 0.00 | 0.07 | 0.07 | 75 | 1014.9 |
| 20260905152159 | 83 | 134 | 5.0 | 10.0 | 0.00 | 0.07 | 0.07 | 75 | 1014.9 |
| 20260905151959 | 83 | 168 | 5.0 | 10.0 | 0.00 | 0.07 | 0.07 | 76 | 1014.9 |
| 20260905151758 | 83 | 112 | 5.0 | 10.0 | 0.00 | 0.07 | 0.07 | 75 | 1014.9 |
| 20260905151559 | 83 | 121 | 5.0 | 10.0 | 0.00 | 0.07 | 0.07 | 75 | 1015.0 |
| 20260905151358 | 83 | 93 | 5.0 | 10.0 | 0.00 | 0.07 | 0.07 | 76 | 1014.9 |
| 20260905151200 | 82 | 134 | 5.0 | 10.0 | 0.00 | 0.07 | 0.07 | 75 | 1014.8 |
| 20260905150959 | 82 | 162 | 4.0 | 8.0 | 0.00 | 0.07 | 0.07 | 75 | 1014.9 |
| 20260905150759 | 82 | 120 | 4.0 | 9.0 | 0.00 | 0.07 | 0.07 | 75 | 1014.9 |
| 20260905150559 | 82 | 115 | 4.0 | 9.0 | 0.00 | 0.07 | 0.07 | 75 | 1015.0 |
| 20260905150359 | 82 | 122 | 4.0 | 9.0 | 0.00 | 0.07 | 0.07 | 74 | 1015.0 |
| 20260905150159 | 82 | 133 | 4.0 | 9.0 | 0.00 | 0.07 | 0.07 | 75 | 1015.0 |
| 20260905150003 | 82 | 167 | 4.0 | 9.0 | 0.00 | 0.07 | 0.07 | 76 | 1015.0 |
| 20260905145759 | 82 | 124 | 4.0 | 9.0 | 0.00 | 0.07 | 0.07 | 75 | 1015.1 |
| 20260905145559 | 82 | 45 | 5.0 | 10.0 | 0.00 | 0.07 | 0.07 | 75 | 1015.0 |
| 20260905145358 | 81 | 101 | 5.0 | 14.0 | 0.00 | 0.07 | 0.07 | 74 | 1015.1 |
| 20260905145158 | 81 | 98 | 5.0 | 14.0 | 0.00 | 0.07 | 0.07 | 75 | 1015.1 |
| 20260905144959 | 81 | 126 | 5.0 | 14.0 | 0.00 | 0.07 | 0.07 | 78 | 1015.1 |
| 20260905144759 | 81 | 101 | 5.0 | 14.0 | 0.00 | 0.07 | 0.07 | 76 | 1015.1 |
| 20260905144558 | 81 | 111 | 4.0 | 10.0 | 0.00 | 0.07 | 0.07 | 78 | 1015.2 |
| 20260905144358 | 81 | 118 | 4.0 | 9.0 | 0.00 | 0.07 | 0.07 | 79 | 1015.3 |
| 20260905143958 | 80 | 86 | 3.0 | 6.0 | 0.00 | 0.07 | 0.07 | 81 | 1015.3 |
| 20260905143559 | 80 | 80 | 3.0 | 7.0 | 0.00 | 0.07 | 0.07 | 84 | 1015.2 |
| 20260905143400 | 79 | 111 | 3.0 | 8.0 | 0.00 | 0.07 | 0.07 | 84 | 1015.1 |
| 20260905143158 | 79 | 101 | 4.0 | 10.0 | 0.00 | 0.07 | 0.07 | 85 | 1015.2 |
| 20260905142959 | 79 | 82 | 4.0 | 10.0 | 0.00 | 0.07 | 0.07 | 84 | 1015.2 |
| 20260905142759 | 79 | 99 | 4.0 | 10.0 | 0.00 | 0.07 | 0.07 | 85 | 1015.2 |
| 20260905142559 | 79 | 83 | 4.0 | 10.0 | 0.00 | 0.07 | 0.07 | 85 | 1015.1 |
| 20260905142358 | 79 | 101 | 4.0 | 10.0 | 0.00 | 0.07 | 0.07 | 86 | 1015.1 |
| 20260905142159 | 78 | 112 | 4.0 | 10.0 | 0.00 | 0.07 | 0.07 | 86 | 1015.1 |
| 20260905141958 | 78 | 105 | 5.0 | 10.0 | 0.00 | 0.07 | 0.07 | 87 | 1015.1 |
| 20260905141759 | 78 | 107 | 4.0 | 10.0 | 0.00 | 0.07 | 0.07 | 86 | 1015.1 |
| 20260905141559 | 78 | 101 | 4.0 | 10.0 | 0.00 | 0.07 | 0.07 | 87 | 1015.2 |
| 20260905141359 | 78 | 105 | 4.0 | 10.0 | 0.00 | 0.07 | 0.07 | 88 | 1015.2 |
| 20260905141200 | 78 | 40 | 4.0 | 10.0 | 0.00 | 0.07 | 0.07 | 87 | 1015.3 |
| 20260905140959 | 78 | 47 | 4.0 | 10.0 | 0.00 | 0.07 | 0.07 | 87 | 1015.3 |
| 20260905140759 | 78 | 47 | 4.0 | 11.0 | 0.00 | 0.07 | 0.07 | 88 | 1015.3 |
| 20260905140559 | 78 | 53 | 4.0 | 11.0 | 0.00 | 0.07 | 0.07 | 88 | 1015.3 |
| 20260905140358 | 78 | 63 | 5.0 | 12.0 | 0.00 | 0.07 | 0.07 | 88 | 1015.3 |
| 20260905140159 | 78 | 98 | 5.0 | 12.0 | 0.00 | 0.07 | 0.07 | 89 | 1015.4 |
| 20260905140001 | 77 | 25 | 5.0 | 12.0 | 0.00 | 0.07 | 0.07 | 89 | 1015.3 |
| 20260905135758 | 77 | 106 | 4.0 | 12.0 | 0.00 | 0.07 | 0.07 | 89 | 1015.3 |
| 20260905135559 | 77 | 119 | 4.0 | 12.0 | 0.00 | 0.07 | 0.07 | 90 | 1015.4 |
| 20260905135158 | 77 | 58 | 5.0 | 9.0 | 0.00 | 0.07 | 0.07 | 91 | 1015.4 |
| 20260905134800 | 77 | 110 | 5.0 | 13.0 | 0.00 | 0.07 | 0.07 | 91 | 1015.4 |
| 20260905134359 | 77 | 49 | 5.0 | 14.0 | 0.01 | 0.07 | 0.07 | 91 | 1015.4 |
| 20260905134158 | 77 | 58 | 5.0 | 14.0 | 0.02 | 0.07 | 0.07 | 92 | 1015.3 |
| 20260905134001 | 77 | 28 | 5.0 | 14.0 | 0.02 | 0.07 | 0.07 | 94 | 1015.4 |
| 20260905133759 | 76 | 96 | 6.0 | 14.0 | 0.03 | 0.07 | 0.07 | 94 | 1015.4 |
| 20260905133559 | 76 | 49 | 6.0 | 14.0 | 0.04 | 0.07 | 0.07 | 93 | 1015.5 |
| 20260905133358 | 76 | 58 | 6.0 | 14.0 | 0.07 | 0.07 | 0.07 | 93 | 1015.5 |
| 20260905133159 | 76 | 44 | 7.0 | 13.0 | 0.07 | 0.07 | 0.07 | 95 | 1015.5 |
| 20260905132959 | 76 | 44 | 7.0 | 15.0 | 0.07 | 0.07 | 0.07 | 95 | 1015.5 |
| 20260905132359 | 75 | 43 | 6.0 | 15.0 | 0.07 | 0.07 | 0.07 | 96 | 1015.5 |
| 20260905132159 | 75 | 40 | 6.0 | 14.0 | 0.07 | 0.07 | 0.07 | 97 | 1015.5 |
| 20260905131959 | 75 | 63 | 5.0 | 9.0 | 0.07 | 0.07 | 0.07 | 97 | 1015.4 |
| 20260905131758 | 75 | 60 | 5.0 | 9.0 | 0.07 | 0.07 | 0.07 | 97 | 1015.4 |
| 20260905131600 | 75 | 72 | 5.0 | 9.0 | 0.07 | 0.07 | 0.07 | 98 | 1015.4 |
| 20260905131359 | 75 | 48 | 6.0 | 11.0 | 0.07 | 0.07 | 0.07 | 98 | 1015.4 |
| 20260905131159 | 75 | 51 | 7.0 | 13.0 | 0.07 | 0.07 | 0.07 | 98 | 1015.4 |
| 20260905130959 | 75 | 60 | 7.0 | 15.0 | 0.07 | 0.07 | 0.07 | 98 | 1015.3 |
| 20260905130558 | 75 | 49 | 7.0 | 15.0 | 0.07 | 0.07 | 0.07 | 99 | 1015.4 |
| 20260905130400 | 75 | 49 | 6.0 | 15.0 | 0.07 | 0.07 | 0.07 | 99 | 1015.4 |
| 20260905130158 | 75 | 48 | 5.0 | 15.0 | 0.07 | 0.07 | 0.07 | 99 | 1015.3 |
| 20260905130003 | 75 | 41 | 4.0 | 9.0 | 0.07 | 0.07 | 0.07 | 99 | 1015.2 |
| 20260905125759 | 75 | 34 | 4.0 | 6.0 | 0.07 | 0.07 | 0.07 | 99 | 1014.8 |
| 20260905125559 | 75 | 10 | 4.0 | 6.0 | 0.07 | 0.07 | 0.07 | 99 | 1014.7 |
| 20260905125358 | 75 | 24 | 3.0 | 6.0 | 0.07 | 0.07 | 0.07 | 99 | 1014.5 |
| 20260905125159 | 75 | 39 | 2.0 | 5.0 | 0.07 | 0.07 | 0.07 | 99 | 1014.5 |
| 20260905124959 | 76 | 39 | 1.0 | 4.0 | 0.07 | 0.07 | 0.07 | 99 | 1014.5 |
| 20260905124759 | 76 | 39 | 1.0 | 4.0 | 0.07 | 0.07 | 0.07 | 99 | 1014.7 |
| 20260905124400 | 76 | 99 | 1.0 | 2.0 | 0.05 | 0.05 | 0.05 | 98 | 1015.0 |
| 20260905124158 | 76 | 82 | 1.0 | 2.0 | 0.05 | 0.05 | 0.05 | 98 | 1015.0 |
| 20260905123759 | 76 | 205 | 1.0 | 2.0 | 0.03 | 0.03 | 0.03 | 99 | 1015.3 |
| 20260905123358 | 75 | 316 | 1.0 | 4.0 | 0.00 | 0.00 | 0.00 | 99 | 1015.5 |
| 20260905123201 | 75 | 316 | 1.0 | 4.0 | 0.00 | 0.00 | 0.00 | 99 | 1015.6 |
| 20260905122959 | 75 | 328 | 1.0 | 4.0 | 0.00 | 0.00 | 0.00 | 99 | 1015.5 |
| 20260905122759 | 75 | 307 | 1.0 | 4.0 | 0.00 | 0.00 | 0.00 | 99 | 1015.4 |
| 20260905122558 | 75 | 279 | 0.0 | 4.0 | 0.00 | 0.00 | 0.00 | 100 | 1015.1 |
| 20260905122359 | 75 | 88 | 0.0 | 0.0 | 0.00 | 0.00 | 0.00 | 100 | 1014.8 |
| 20260905121959 | 74 | 88 | 0.0 | 0.0 | 0.00 | 0.00 | 0.00 | 100 | 1014.8 |
| 20260905121758 | 74 | 88 | 0.0 | 1.0 | 0.00 | 0.00 | 0.00 | 100 | 1014.7 |
| 20260905121359 | 74 | 88 | 0.0 | 2.0 | 0.00 | 0.00 | 0.00 | 100 | 1014.7 |
| 20260905121159 | 73 | 88 | 0.0 | 2.0 | 0.00 | 0.00 | 0.00 | 100 | 1014.7 |
| 20260905120959 | 73 | 355 | 0.0 | 2.0 | 0.00 | 0.00 | 0.00 | 100 | 1014.8 |
| 20260905120759 | 73 | 357 | 0.0 | 2.0 | 0.00 | 0.00 | 0.00 | 100 | 1014.7 |
| 20260905120359 | 73 | 273 | 1.0 | 2.0 | 0.00 | 0.00 | 0.00 | 100 | 1014.8 |
| 20260905120158 | 73 | 273 | 1.0 | 3.0 | 0.00 | 0.00 | 0.00 | 100 | 1014.8 |
| 20260905120004 | 73 | 273 | 1.0 | 3.0 | 0.00 | 0.00 | 0.00 | 100 | 1014.7 |
| 20260905115759 | 72 | 273 | 1.0 | 3.0 | 0.00 | 0.00 | 0.00 | 100 | 1014.6 |
| 20260905115559 | 72 | 273 | 2.0 | 3.0 | 0.00 | 0.00 | 0.00 | 100 | 1014.7 |
| 20260905115159 | 72 | 269 | 2.0 | 4.0 | 0.00 | 0.00 | 0.00 | 100 | 1014.7 |
| 20260905114959 | 72 | 264 | 1.0 | 4.0 | 0.00 | 0.00 | 0.00 | 100 | 1014.5 |
| 20260905114759 | 72 | 295 | 1.0 | 4.0 | 0.00 | 0.00 | 0.00 | 100 | 1014.5 |
| 20260905114559 | 72 | 37 | 1.0 | 4.0 | 0.00 | 0.00 | 0.00 | 100 | 1014.5 |
| 20260905114359 | 72 | 58 | 0.0 | 4.0 | 0.00 | 0.00 | 0.00 | 100 | 1014.3 |
| 20260905114000 | 72 | 258 | 0.0 | 0.0 | 0.00 | 0.00 | 0.00 | 100 | 1014.2 |
| 20260905113759 | 72 | 258 | 0.0 | 0.0 | 0.00 | 0.00 | 0.00 | 99 | 1014.2 |
| 20260905113559 | 72 | 257 | 0.0 | 0.0 | 0.00 | 0.00 | 0.00 | 99 | 1014.2 |
| 20260905113358 | 72 | 258 | 0.0 | 0.0 | 0.00 | 0.00 | 0.00 | 99 | 1014.2 |
| 20260905113201 | 72 | 258 | 0.0 | 0.0 | 0.00 | 0.00 | 0.00 | 99 | 1014.2 |
| 20260905112959 | 72 | 258 | 0.0 | 0.0 | 0.00 | 0.00 | 0.00 | 100 | 1014.1 |
| 20260905112558 | 72 | 258 | 0.0 | 0.0 | 0.00 | 0.00 | 0.00 | 99 | 1014.1 |
| 20260905112000 | 72 | 258 | 0.0 | 0.0 | 0.00 | 0.00 | 0.00 | 100 | 1013.9 |
| 20260905111759 | 72 | 258 | 0.0 | 0.0 | 0.00 | 0.00 | 0.00 | 100 | 1013.9 |
| 20260905111600 | 72 | 258 | 0.0 | 0.0 | 0.00 | 0.00 | 0.00 | 100 | 1013.8 |
| 20260905111159 | 72 | 258 | 0.0 | 0.0 | 0.00 | 0.00 | 0.00 | 100 | 1013.7 |
| 20260905110959 | 72 | 258 | 0.0 | 0.0 | 0.00 | 0.00 | 0.00 | 100 | 1013.7 |
| 20260905110759 | 72 | 258 | 0.0 | 0.0 | 0.00 | 0.00 | 0.00 | 100 | 1013.7 |
| 20260905110558 | 72 | 258 | 0.0 | 0.0 | 0.00 | 0.00 | 0.00 | 99 | 1013.7 |
| 20260905110159 | 72 | 258 | 0.0 | 0.0 | 0.00 | 0.00 | 0.00 | 99 | 1013.7 |
| 20260905105758 | 72 | 258 | 0.0 | 0.0 | 0.00 | 0.00 | 0.00 | 99 | 1013.6 |
| 20260905105559 | 72 | 258 | 0.0 | 0.0 | 0.00 | 0.00 | 0.00 | 100 | 1013.5 |
| 20260905105358 | 72 | 258 | 0.0 | 0.0 | 0.00 | 0.00 | 0.00 | 100 | 1013.5 |
| 20260905105159 | 72 | 258 | 0.0 | 0.0 | 0.00 | 0.00 | 0.00 | 100 | 1013.5 |
| 20260905104958 | 72 | 258 | 0.0 | 0.0 | 0.00 | 0.00 | 0.00 | 100 | 1013.4 |
| 20260905104800 | 72 | 258 | 0.0 | 0.0 | 0.00 | 0.00 | 0.00 | 99 | 1013.4 |
| 20260905104558 | 72 | 258 | 0.0 | 0.0 | 0.00 | 0.00 | 0.00 | 99 | 1013.4 |
| 20260905104158 | 72 | 258 | 0.0 | 0.0 | 0.00 | 0.00 | 0.00 | 99 | 1013.5 |
| 20260905103558 | 73 | 258 | 0.0 | 0.0 | 0.00 | 0.00 | 0.00 | 99 | 1013.4 |
| 20260905103358 | 73 | 258 | 0.0 | 0.0 | 0.00 | 0.00 | 0.00 | 99 | 1013.3 |
| 20260905103158 | 73 | 258 | 0.0 | 0.0 | 0.00 | 0.00 | 0.00 | 99 | 1013.3 |
| 20260905102959 | 73 | 258 | 0.0 | 0.0 | 0.00 | 0.00 | 0.00 | 100 | 1013.3 |
| 20260905102758 | 73 | 258 | 0.0 | 0.0 | 0.00 | 0.00 | 0.00 | 100 | 1013.4 |
| 20260905102558 | 73 | 258 | 0.0 | 0.0 | 0.00 | 0.00 | 0.00 | 100 | 1013.4 |
| 20260905102359 | 73 | 258 | 0.0 | 0.0 | 0.00 | 0.00 | 0.00 | 100 | 1013.4 |
| 20260905102158 | 73 | 258 | 0.0 | 0.0 | 0.00 | 0.00 | 0.00 | 100 | 1013.4 |
| 20260905101959 | 73 | 258 | 0.0 | 0.0 | 0.00 | 0.00 | 0.00 | 100 | 1013.4 |
| 20260905101559 | 73 | 258 | 0.0 | 0.0 | 0.00 | 0.00 | 0.00 | 99 | 1013.5 |
| 20260905101358 | 73 | 258 | 0.0 | 0.0 | 0.00 | 0.00 | 0.00 | 99 | 1013.5 |
| 20260905101200 | 73 | 258 | 0.0 | 0.0 | 0.00 | 0.00 | 0.00 | 99 | 1013.5 |
| 20260905100958 | 73 | 258 | 0.0 | 0.0 | 0.00 | 0.00 | 0.00 | 99 | 1013.5 |
| 20260905100558 | 73 | 258 | 0.0 | 0.0 | 0.00 | 0.00 | 0.00 | 99 | 1013.5 |
| 20260905100358 | 73 | 258 | 0.0 | 0.0 | 0.00 | 0.00 | 0.00 | 99 | 1013.5 |
| 20260905100158 | 73 | 258 | 0.0 | 0.0 | 0.00 | 0.00 | 0.00 | 99 | 1013.5 |
| 20260905095758 | 73 | 258 | 0.0 | 0.0 | 0.00 | 0.00 | 0.00 | 99 | 1013.5 |
| 20260905095558 | 73 | 258 | 0.0 | 0.0 | 0.00 | 0.00 | 0.00 | 99 | 1013.5 |
| 20260905095358 | 73 | 257 | 0.0 | 0.0 | 0.00 | 0.00 | 0.00 | 99 | 1013.5 |
| 20260905095158 | 73 | 258 | 0.0 | 0.0 | 0.00 | 0.00 | 0.00 | 99 | 1013.5 |
| 20260905094958 | 73 | 258 | 0.0 | 0.0 | 0.00 | 0.00 | 0.00 | 99 | 1013.5 |
| 20260905094758 | 73 | 257 | 0.0 | 0.0 | 0.00 | 0.00 | 0.00 | 99 | 1013.5 |
| 20260905094558 | 73 | 258 | 0.0 | 0.0 | 0.00 | 0.00 | 0.00 | 99 | 1013.5 |
| 20260905094158 | 73 | 257 | 0.0 | 0.0 | 0.00 | 0.00 | 0.00 | 99 | 1013.4 |
| 20260905093958 | 73 | 258 | 0.0 | 0.0 | 0.00 | 0.00 | 0.00 | 99 | 1013.4 |
| 20260905093758 | 73 | 258 | 0.0 | 0.0 | 0.00 | 0.00 | 0.00 | 99 | 1013.4 |
| 20260905093558 | 73 | 258 | 0.0 | 0.0 | 0.00 | 0.00 | 0.00 | 99 | 1013.4 |
| 20260905093158 | 73 | 258 | 0.0 | 0.0 | 0.00 | 0.00 | 0.00 | 99 | 1013.3 |
| 20260905092758 | 73 | 258 | 0.0 | 0.0 | 0.00 | 0.00 | 0.00 | 99 | 1013.2 |
| 20260905092558 | 73 | 257 | 0.0 | 0.0 | 0.00 | 0.00 | 0.00 | 99 | 1013.1 |
| 20260905092358 | 74 | 258 | 0.0 | 0.0 | 0.00 | 0.00 | 0.00 | 99 | 1013.2 |
| 20260905092158 | 74 | 258 | 0.0 | 0.0 | 0.00 | 0.00 | 0.00 | 99 | 1013.1 |
| 20260905091959 | 74 | 257 | 0.0 | 0.0 | 0.00 | 0.00 | 0.00 | 99 | 1013.0 |
| 20260905091558 | 74 | 259 | 0.0 | 0.0 | 0.00 | 0.00 | 0.00 | 99 | 1013.0 |
| 20260905091358 | 74 | 258 | 0.0 | 0.0 | 0.00 | 0.00 | 0.00 | 99 | 1013.1 |
| 20260905091158 | 74 | 257 | 0.0 | 0.0 | 0.00 | 0.00 | 0.00 | 99 | 1013.0 |
| 20260905090958 | 74 | 257 | 0.0 | 0.0 | 0.00 | 0.00 | 0.00 | 99 | 1013.0 |
| 20260905090559 | 74 | 257 | 0.0 | 0.0 | 0.00 | 0.00 | 0.00 | 99 | 1013.0 |
| 20260905090158 | 74 | 257 | 0.0 | 0.0 | 0.00 | 0.00 | 0.00 | 99 | 1013.0 |
| 20260905090002 | 74 | 257 | 0.0 | 0.0 | 0.00 | 0.00 | 0.00 | 99 | 1012.9 |
| 20260905085800 | 74 | 257 | 0.0 | 0.0 | 0.00 | 0.00 | 0.00 | 99 | 1012.9 |
| 20260905085559 | 74 | 257 | 0.0 | 0.0 | 0.00 | 0.00 | 0.00 | 99 | 1012.9 |
| 20260905085159 | 74 | 257 | 0.0 | 0.0 | 0.00 | 0.00 | 0.00 | 99 | 1013.0 |
| 20260905084759 | 74 | 259 | 0.0 | 0.0 | 0.00 | 0.00 | 0.00 | 99 | 1013.1 |
| 20260905084559 | 74 | 253 | 0.0 | 0.0 | 0.00 | 0.00 | 0.00 | 99 | 1013.1 |
| 20260905084359 | 74 | 253 | 0.0 | 0.0 | 0.00 | 0.00 | 0.00 | 99 | 1013.1 |
| 20260905083758 | 74 | 196 | 0.0 | 1.0 | 0.00 | 0.00 | 0.00 | 99 | 1013.1 |
| 20260905083559 | 74 | 196 | 0.0 | 1.0 | 0.00 | 0.00 | 0.00 | 99 | 1013.2 |
| 20260905083358 | 74 | 196 | 0.0 | 1.0 | 0.00 | 0.00 | 0.00 | 99 | 1013.2 |
| 20260905083159 | 74 | 236 | 0.0 | 1.0 | 0.00 | 0.00 | 0.00 | 99 | 1013.2 |
| 20260905082958 | 74 | 305 | 1.0 | 1.0 | 0.00 | 0.00 | 0.00 | 99 | 1013.3 |
| 20260905082759 | 74 | 314 | 1.0 | 5.0 | 0.00 | 0.00 | 0.00 | 99 | 1013.3 |
| 20260905082558 | 74 | 314 | 2.0 | 8.0 | 0.00 | 0.00 | 0.00 | 100 | 1013.2 |
| 20260905082359 | 74 | 312 | 2.0 | 8.0 | 0.00 | 0.00 | 0.00 | 100 | 1013.3 |
| 20260905082158 | 74 | 19 | 2.0 | 8.0 | 0.00 | 0.00 | 0.00 | 100 | 1013.3 |
| 20260905081959 | 74 | 34 | 1.0 | 8.0 | 0.00 | 0.00 | 0.00 | 100 | 1013.3 |
| 20260905081559 | 73 | 15 | 0.0 | 3.0 | 0.00 | 0.00 | 0.00 | 99 | 1013.2 |
| 20260905081358 | 73 | 262 | 0.0 | 0.0 | 0.00 | 0.00 | 0.00 | 99 | 1013.0 |
| 20260905081159 | 73 | 262 | 0.0 | 0.0 | 0.00 | 0.00 | 0.00 | 99 | 1013.0 |
| 20260905080958 | 73 | 262 | 0.0 | 0.0 | 0.00 | 0.00 | 0.00 | 99 | 1013.0 |
| 20260905080558 | 73 | 262 | 0.0 | 0.0 | 0.00 | 0.00 | 0.00 | 99 | 1013.0 |
| 20260905080359 | 73 | 262 | 0.0 | 0.0 | 0.00 | 0.00 | 0.00 | 100 | 1012.9 |
| 20260905080158 | 73 | 262 | 0.0 | 0.0 | 0.00 | 0.00 | 0.00 | 100 | 1012.8 |
| 20260905080004 | 73 | 262 | 0.0 | 0.0 | 0.00 | 0.00 | 0.00 | 100 | 1013.0 |
| 20260905075758 | 73 | 262 | 0.0 | 0.0 | 0.00 | 0.00 | 0.00 | 100 | 1012.9 |
| 20260905075400 | 73 | 262 | 0.0 | 0.0 | 0.00 | 0.00 | 0.00 | 100 | 1013.0 |
| 20260905075159 | 73 | 262 | 0.0 | 0.0 | 0.00 | 0.00 | 0.00 | 100 | 1013.0 |
| 20260905074958 | 73 | 262 | 0.0 | 0.0 | 0.00 | 0.00 | 0.00 | 100 | 1013.0 |
| 20260905074759 | 73 | 262 | 0.0 | 0.0 | 0.00 | 0.00 | 0.00 | 100 | 1013.0 |
| 20260905074558 | 73 | 289 | 0.0 | 0.0 | 0.00 | 0.00 | 0.00 | 99 | 1012.9 |
| 20260905074158 | 73 | 289 | 0.0 | 0.0 | 0.00 | 0.00 | 0.00 | 99 | 1013.0 |
| 20260905074001 | 73 | 289 | 0.0 | 0.0 | 0.00 | 0.00 | 0.00 | 99 | 1013.0 |
| 20260905073758 | 73 | 289 | 0.0 | 0.0 | 0.00 | 0.00 | 0.00 | 99 | 1013.0 |
| 20260905073358 | 73 | 289 | 0.0 | 0.0 | 0.00 | 0.00 | 0.00 | 99 | 1013.0 |
| 20260905073159 | 73 | 289 | 0.0 | 0.0 | 0.00 | 0.00 | 0.00 | 99 | 1013.0 |
| 20260905072759 | 73 | 289 | 0.0 | 0.0 | 0.00 | 0.00 | 0.00 | 99 | 1013.1 |
| 20260905072558 | 73 | 289 | 0.0 | 0.0 | 0.00 | 0.00 | 0.00 | 99 | 1013.2 |
| 20260905072359 | 73 | 289 | 0.0 | 0.0 | 0.00 | 0.00 | 0.00 | 99 | 1013.2 |
| 20260905072158 | 73 | 289 | 0.0 | 0.0 | 0.00 | 0.00 | 0.00 | 99 | 1013.2 |
| 20260905071959 | 73 | 289 | 0.0 | 0.0 | 0.00 | 0.00 | 0.00 | 99 | 1013.3 |
| 20260905071559 | 73 | 289 | 0.0 | 0.0 | 0.00 | 0.00 | 0.00 | 99 | 1013.3 |
| 20260905071358 | 73 | 289 | 0.0 | 0.0 | 0.00 | 0.00 | 0.00 | 99 | 1013.2 |
| 20260905071159 | 73 | 289 | 0.0 | 0.0 | 0.00 | 0.00 | 0.00 | 99 | 1013.2 |
| 20260905070958 | 73 | 289 | 0.0 | 0.0 | 0.00 | 0.00 | 0.00 | 99 | 1013.2 |
| 20260905070759 | 74 | 289 | 0.0 | 0.0 | 0.00 | 0.00 | 0.00 | 99 | 1013.2 |
| 20260905070558 | 74 | 289 | 0.0 | 0.0 | 0.00 | 0.00 | 0.00 | 99 | 1013.3 |
| 20260905070359 | 74 | 289 | 0.0 | 0.0 | 0.00 | 0.00 | 0.00 | 99 | 1013.2 |
| 20260905070158 | 74 | 289 | 0.0 | 0.0 | 0.00 | 0.00 | 0.00 | 99 | 1013.3 |
| 20260905070002 | 74 | 289 | 0.0 | 0.0 | 0.00 | 0.00 | 0.00 | 99 | 1013.3 |
| 20260905065758 | 74 | 289 | 0.0 | 0.0 | 0.00 | 0.00 | 0.00 | 99 | 1013.3 |
| 20260905065558 | 74 | 289 | 0.0 | 0.0 | 0.00 | 0.00 | 0.00 | 99 | 1013.3 |
| 20260905065358 | 74 | 289 | 0.0 | 0.0 | 0.00 | 0.00 | 0.00 | 99 | 1013.3 |
| 20260905065158 | 74 | 289 | 0.0 | 0.0 | 0.00 | 0.00 | 0.00 | 99 | 1013.3 |
| 20260905065001 | 74 | 289 | 0.0 | 0.0 | 0.00 | 0.00 | 0.00 | 99 | 1013.3 |
| 20260905064758 | 74 | 289 | 0.0 | 0.0 | 0.00 | 0.00 | 0.00 | 99 | 1013.4 |
| 20260905064558 | 74 | 289 | 0.0 | 0.0 | 0.00 | 0.00 | 0.00 | 99 | 1013.4 |
| 20260905064158 | 74 | 289 | 0.0 | 0.0 | 0.00 | 0.00 | 0.00 | 99 | 1013.5 |
| 20260905063958 | 74 | 289 | 0.0 | 0.0 | 0.00 | 0.00 | 0.00 | 99 | 1013.5 |
| 20260905063759 | 74 | 289 | 0.0 | 0.0 | 0.00 | 0.00 | 0.00 | 99 | 1013.5 |
| 20260905063558 | 74 | 289 | 0.0 | 0.0 | 0.00 | 0.00 | 0.00 | 99 | 1013.7 |
| 20260905063358 | 74 | 289 | 0.0 | 0.0 | 0.00 | 0.00 | 0.00 | 99 | 1013.7 |
| 20260905062959 | 74 | 289 | 0.0 | 0.0 | 0.00 | 0.00 | 0.00 | 99 | 1013.7 |
| 20260905062758 | 74 | 289 | 0.0 | 0.0 | 0.00 | 0.00 | 0.00 | 99 | 1013.7 |
| 20260905062558 | 74 | 289 | 0.0 | 0.0 | 0.00 | 0.00 | 0.00 | 99 | 1013.7 |
| 20260905062359 | 74 | 289 | 0.0 | 0.0 | 0.00 | 0.00 | 0.00 | 99 | 1013.7 |
| 20260905062158 | 74 | 289 | 0.0 | 0.0 | 0.00 | 0.00 | 0.00 | 99 | 1013.8 |
| 20260905062001 | 74 | 289 | 0.0 | 0.0 | 0.00 | 0.00 | 0.00 | 99 | 1013.9 |
| 20260905061758 | 74 | 289 | 0.0 | 0.0 | 0.00 | 0.00 | 0.00 | 99 | 1013.9 |
| 20260905061359 | 74 | 289 | 0.0 | 0.0 | 0.00 | 0.00 | 0.00 | 99 | 1013.9 |
| 20260905061159 | 74 | 289 | 0.0 | 0.0 | 0.00 | 0.00 | 0.00 | 99 | 1013.9 |
| 20260905060958 | 74 | 289 | 0.0 | 0.0 | 0.00 | 0.00 | 0.00 | 99 | 1014.0 |
| 20260905060759 | 74 | 289 | 0.0 | 0.0 | 0.00 | 0.00 | 0.00 | 99 | 1014.0 |
| 20260905060558 | 74 | 289 | 0.0 | 0.0 | 0.00 | 0.00 | 0.00 | 99 | 1014.0 |
| 20260905060359 | 74 | 289 | 0.0 | 0.0 | 0.00 | 0.00 | 0.00 | 99 | 1014.0 |
| 20260905060158 | 74 | 289 | 0.0 | 0.0 | 0.00 | 0.00 | 0.00 | 99 | 1014.0 |
| 20260905060004 | 74 | 289 | 0.0 | 0.0 | 0.00 | 0.00 | 0.00 | 99 | 1014.0 |
| 20260905055758 | 74 | 289 | 0.0 | 0.0 | 0.00 | 0.00 | 0.00 | 99 | 1014.0 |
| 20260905055358 | 74 | 289 | 0.0 | 0.0 | 0.00 | 0.00 | 0.00 | 99 | 1014.0 |
| 20260905055158 | 74 | 289 | 0.0 | 0.0 | 0.00 | 0.00 | 0.00 | 99 | 1014.0 |
| 20260905054959 | 74 | 289 | 0.0 | 0.0 | 0.00 | 0.00 | 0.00 | 98 | 1014.1 |
| 20260905054759 | 74 | 289 | 0.0 | 0.0 | 0.00 | 0.00 | 0.00 | 98 | 1014.1 |
| 20260905054359 | 74 | 289 | 0.0 | 0.0 | 0.00 | 0.00 | 0.00 | 99 | 1014.1 |
| 20260905054158 | 74 | 289 | 0.0 | 0.0 | 0.00 | 0.00 | 0.00 | 99 | 1014.1 |
| 20260905053758 | 75 | 289 | 0.0 | 0.0 | 0.00 | 0.00 | 0.00 | 99 | 1014.0 |
| 20260905053559 | 74 | 289 | 0.0 | 0.0 | 0.00 | 0.00 | 0.00 | 99 | 1014.0 |
| 20260905053358 | 74 | 289 | 0.0 | 0.0 | 0.00 | 0.00 | 0.00 | 99 | 1014.0 |
| 20260905053159 | 74 | 289 | 0.0 | 0.0 | 0.00 | 0.00 | 0.00 | 99 | 1014.0 |
| 20260905052958 | 74 | 289 | 0.0 | 0.0 | 0.00 | 0.00 | 0.00 | 99 | 1013.9 |
| 20260905052759 | 74 | 289 | 0.0 | 0.0 | 0.00 | 0.00 | 0.00 | 98 | 1014.0 |
| 20260905052558 | 74 | 289 | 0.0 | 0.0 | 0.00 | 0.00 | 0.00 | 98 | 1014.0 |
| 20260905052359 | 75 | 289 | 0.0 | 0.0 | 0.00 | 0.00 | 0.00 | 98 | 1014.0 |
| 20260905052158 | 75 | 289 | 0.0 | 0.0 | 0.00 | 0.00 | 0.00 | 98 | 1014.0 |
| 20260905052000 | 75 | 289 | 0.0 | 0.0 | 0.00 | 0.00 | 0.00 | 98 | 1014.0 |
| 20260905051758 | 75 | 289 | 0.0 | 0.0 | 0.00 | 0.00 | 0.00 | 98 | 1014.0 |
| 20260905051559 | 75 | 289 | 0.0 | 0.0 | 0.00 | 0.00 | 0.00 | 98 | 1014.0 |
| 20260905051358 | 75 | 289 | 0.0 | 0.0 | 0.00 | 0.00 | 0.00 | 98 | 1014.0 |
| 20260905051159 | 75 | 289 | 0.0 | 0.0 | 0.00 | 0.00 | 0.00 | 98 | 1014.0 |
| 20260905050958 | 75 | 289 | 0.0 | 0.0 | 0.00 | 0.00 | 0.00 | 99 | 1014.0 |
| 20260905050759 | 75 | 289 | 0.0 | 0.0 | 0.00 | 0.00 | 0.00 | 99 | 1014.0 |
| 20260905050359 | 75 | 289 | 0.0 | 0.0 | 0.00 | 0.00 | 0.00 | 98 | 1013.9 |
| 20260905050158 | 75 | 289 | 0.0 | 0.0 | 0.00 | 0.00 | 0.00 | 98 | 1014.0 |
| 20260905050002 | 75 | 289 | 0.0 | 0.0 | 0.00 | 0.00 | 0.00 | 98 | 1014.0 |
| 20260905045758 | 75 | 289 | 0.0 | 0.0 | 0.00 | 0.00 | 0.00 | 98 | 1014.0 |
| 20260905045559 | 75 | 289 | 0.0 | 0.0 | 0.00 | 0.00 | 0.00 | 98 | 1014.0 |
| 20260905045400 | 75 | 289 | 0.0 | 0.0 | 0.00 | 0.00 | 0.00 | 99 | 1014.0 |
| 20260905045200 | 75 | 289 | 0.0 | 0.0 | 0.00 | 0.00 | 0.00 | 99 | 1014.1 |
| 20260905044400 | 75 | 289 | 0.0 | 0.0 | 0.00 | 0.00 | 0.00 | 98 | 1014.1 |
| 20260905044000 | 75 | 289 | 0.0 | 0.0 | 0.00 | 0.00 | 0.00 | 98 | 1014.1 |
| 20260905043600 | 75 | 289 | 0.0 | 0.0 | 0.00 | 0.00 | 0.00 | 98 | 1014.1 |
| 20260905043400 | 75 | 289 | 0.0 | 0.0 | 0.00 | 0.00 | 0.00 | 98 | 1014.2 |
| 20260905043200 | 75 | 289 | 0.0 | 0.0 | 0.00 | 0.00 | 0.00 | 98 | 1014.1 |
| 20260905042800 | 75 | 289 | 0.0 | 0.0 | 0.00 | 0.00 | 0.00 | 98 | 1014.1 |
| 20260905042600 | 75 | 289 | 0.0 | 0.0 | 0.00 | 0.00 | 0.00 | 98 | 1014.2 |
| 20260905042400 | 75 | 289 | 0.0 | 0.0 | 0.00 | 0.00 | 0.00 | 98 | 1014.1 |
| 20260905042200 | 75 | 289 | 0.0 | 0.0 | 0.00 | 0.00 | 0.00 | 98 | 1014.2 |
| 20260905042000 | 75 | 289 | 0.0 | 0.0 | 0.00 | 0.00 | 0.00 | 98 | 1014.2 |
| 20260905041800 | 75 | 289 | 0.0 | 0.0 | 0.00 | 0.00 | 0.00 | 97 | 1014.1 |
| 20260905041600 | 75 | 289 | 0.0 | 0.0 | 0.00 | 0.00 | 0.00 | 97 | 1014.1 |
| 20260905041001 | 76 | 289 | 0.0 | 0.0 | 0.00 | 0.00 | 0.00 | 97 | 1014.2 |
| 20260905040800 | 76 | 289 | 0.0 | 0.0 | 0.00 | 0.00 | 0.00 | 97 | 1014.2 |
| 20260905040600 | 76 | 289 | 0.0 | 0.0 | 0.00 | 0.00 | 0.00 | 98 | 1014.2 |
| 20260905040400 | 76 | 289 | 0.0 | 0.0 | 0.00 | 0.00 | 0.00 | 98 | 1014.2 |
| 20260905040200 | 76 | 289 | 0.0 | 0.0 | 0.00 | 0.00 | 0.00 | 98 | 1014.2 |
| 20260905040005 | 76 | 289 | 0.0 | 0.0 | 0.00 | 0.00 | 0.00 | 98 | 1014.2 |
| 20260905035800 | 76 | 289 | 0.0 | 0.0 | 0.00 | 0.00 | 0.00 | 98 | 1014.2 |
| 20260905035601 | 76 | 289 | 0.0 | 0.0 | 0.00 | 0.00 | 0.00 | 98 | 1014.2 |
| 20260905035400 | 76 | 289 | 0.0 | 0.0 | 0.00 | 0.00 | 0.00 | 97 | 1014.2 |
| 20260905035201 | 76 | 289 | 0.0 | 0.0 | 0.00 | 0.00 | 0.00 | 97 | 1014.3 |
| 20260905035000 | 76 | 289 | 0.0 | 0.0 | 0.00 | 0.00 | 0.00 | 97 | 1014.2 |
| 20260905034801 | 76 | 289 | 0.0 | 0.0 | 0.00 | 0.00 | 0.00 | 97 | 1014.2 |
| 20260905034600 | 76 | 289 | 0.0 | 0.0 | 0.00 | 0.00 | 0.00 | 97 | 1014.2 |
| 20260905034402 | 76 | 289 | 0.0 | 0.0 | 0.00 | 0.00 | 0.00 | 97 | 1014.2 |
| 20260905034201 | 76 | 289 | 0.0 | 0.0 | 0.00 | 0.00 | 0.00 | 97 | 1014.2 |
| 20260905034001 | 76 | 289 | 0.0 | 0.0 | 0.00 | 0.00 | 0.00 | 97 | 1014.2 |
| 20260905033800 | 76 | 289 | 0.0 | 0.0 | 0.00 | 0.00 | 0.00 | 97 | 1014.2 |
| 20260905033601 | 76 | 289 | 0.0 | 0.0 | 0.00 | 0.00 | 0.00 | 97 | 1014.2 |
| 20260905033201 | 76 | 289 | 0.0 | 0.0 | 0.00 | 0.00 | 0.00 | 97 | 1014.2 |
| 20260905033000 | 76 | 289 | 0.0 | 0.0 | 0.00 | 0.00 | 0.00 | 97 | 1014.2 |
| 20260905032600 | 76 | 289 | 0.0 | 0.0 | 0.00 | 0.00 | 0.00 | 96 | 1014.3 |
| 20260905032401 | 76 | 289 | 0.0 | 0.0 | 0.00 | 0.00 | 0.00 | 96 | 1014.3 |
| 20260905032200 | 76 | 289 | 0.0 | 0.0 | 0.00 | 0.00 | 0.00 | 96 | 1014.3 |
| 20260905032003 | 76 | 289 | 0.0 | 0.0 | 0.00 | 0.00 | 0.00 | 96 | 1014.3 |
| 20260905031800 | 76 | 289 | 0.0 | 0.0 | 0.00 | 0.00 | 0.00 | 96 | 1014.3 |
| 20260905031601 | 77 | 289 | 0.0 | 0.0 | 0.00 | 0.00 | 0.00 | 96 | 1014.3 |
| 20260905031400 | 77 | 289 | 0.0 | 0.0 | 0.00 | 0.00 | 0.00 | 97 | 1014.3 |
| 20260905031201 | 77 | 289 | 0.0 | 0.0 | 0.00 | 0.00 | 0.00 | 97 | 1014.3 |
| 20260905031000 | 77 | 289 | 0.0 | 0.0 | 0.00 | 0.00 | 0.00 | 97 | 1014.3 |
| 20260905030801 | 77 | 289 | 0.0 | 0.0 | 0.00 | 0.00 | 0.00 | 97 | 1014.3 |
| 20260905030401 | 77 | 289 | 0.0 | 0.0 | 0.00 | 0.00 | 0.00 | 97 | 1014.3 |
| 20260905030200 | 76 | 289 | 0.0 | 0.0 | 0.00 | 0.00 | 0.00 | 97 | 1014.3 |
| 20260905030003 | 76 | 289 | 0.0 | 0.0 | 0.00 | 0.00 | 0.00 | 97 | 1014.4 |
| 20260905025601 | 76 | 289 | 0.0 | 0.0 | 0.00 | 0.00 | 0.00 | 95 | 1014.3 |
| 20260905025400 | 76 | 289 | 0.0 | 0.0 | 0.00 | 0.00 | 0.00 | 95 | 1014.4 |
| 20260905025202 | 77 | 289 | 0.0 | 0.0 | 0.00 | 0.00 | 0.00 | 95 | 1014.4 |
| 20260905025000 | 77 | 289 | 0.0 | 0.0 | 0.00 | 0.00 | 0.00 | 95 | 1014.4 |
| 20260905024801 | 77 | 289 | 0.0 | 0.0 | 0.00 | 0.00 | 0.00 | 95 | 1014.4 |
| 20260905024600 | 77 | 289 | 0.0 | 0.0 | 0.00 | 0.00 | 0.00 | 95 | 1014.4 |
| 20260905024401 | 77 | 289 | 0.0 | 0.0 | 0.00 | 0.00 | 0.00 | 95 | 1014.4 |
| 20260905024200 | 77 | 289 | 0.0 | 0.0 | 0.00 | 0.00 | 0.00 | 95 | 1014.4 |
| 20260905024001 | 77 | 289 | 0.0 | 0.0 | 0.00 | 0.00 | 0.00 | 95 | 1014.3 |
| 20260905023800 | 77 | 289 | 0.0 | 0.0 | 0.00 | 0.00 | 0.00 | 95 | 1014.3 |
| 20260905023603 | 77 | 289 | 0.0 | 0.0 | 0.00 | 0.00 | 0.00 | 95 | 1014.3 |
| 20260905023400 | 77 | 289 | 0.0 | 0.0 | 0.00 | 0.00 | 0.00 | 94 | 1014.3 |
| 20260905023000 | 78 | 289 | 0.0 | 0.0 | 0.00 | 0.00 | 0.00 | 95 | 1014.3 |
| 20260905022801 | 78 | 289 | 0.0 | 0.0 | 0.00 | 0.00 | 0.00 | 95 | 1014.2 |
| 20260905022401 | 77 | 289 | 0.0 | 0.0 | 0.00 | 0.00 | 0.00 | 95 | 1014.2 |
| 20260905022200 | 77 | 289 | 0.0 | 0.0 | 0.00 | 0.00 | 0.00 | 95 | 1014.2 |
| 20260905021800 | 77 | 289 | 0.0 | 0.0 | 0.00 | 0.00 | 0.00 | 94 | 1014.2 |
| 20260905021601 | 77 | 289 | 0.0 | 0.0 | 0.00 | 0.00 | 0.00 | 94 | 1014.2 |
| 20260905021400 | 77 | 289 | 0.0 | 0.0 | 0.00 | 0.00 | 0.00 | 94 | 1014.2 |
| 20260905021201 | 78 | 289 | 0.0 | 0.0 | 0.00 | 0.00 | 0.00 | 94 | 1014.2 |
| 20260905021000 | 78 | 289 | 0.0 | 0.0 | 0.00 | 0.00 | 0.00 | 93 | 1014.2 |
| 20260905020801 | 78 | 289 | 0.0 | 0.0 | 0.00 | 0.00 | 0.00 | 93 | 1014.2 |
| 20260905020600 | 78 | 289 | 0.0 | 0.0 | 0.00 | 0.00 | 0.00 | 93 | 1014.1 |
| 20260905020401 | 78 | 289 | 0.0 | 0.0 | 0.00 | 0.00 | 0.00 | 94 | 1014.1 |
| 20260905020200 | 78 | 289 | 0.0 | 0.0 | 0.00 | 0.00 | 0.00 | 94 | 1014.2 |
| 20260905020005 | 78 | 289 | 0.0 | 0.0 | 0.00 | 0.00 | 0.00 | 94 | 1014.1 |
| 20260905015800 | 78 | 289 | 0.0 | 0.0 | 0.00 | 0.00 | 0.00 | 94 | 1014.1 |
| 20260905015601 | 78 | 289 | 0.0 | 0.0 | 0.00 | 0.00 | 0.00 | 94 | 1014.1 |
| 20260905015400 | 78 | 289 | 0.0 | 0.0 | 0.00 | 0.00 | 0.00 | 93 | 1014.1 |
| 20260905015201 | 78 | 289 | 0.0 | 0.0 | 0.00 | 0.00 | 0.00 | 93 | 1014.1 |
| 20260905015000 | 78 | 289 | 0.0 | 0.0 | 0.00 | 0.00 | 0.00 | 93 | 1014.1 |
| 20260905014801 | 78 | 289 | 0.0 | 0.0 | 0.00 | 0.00 | 0.00 | 92 | 1014.1 |
| 20260905014600 | 79 | 289 | 0.0 | 0.0 | 0.00 | 0.00 | 0.00 | 92 | 1014.0 |
| 20260905014401 | 79 | 289 | 0.0 | 0.0 | 0.00 | 0.00 | 0.00 | 92 | 1014.0 |
| 20260905014200 | 79 | 289 | 0.0 | 0.0 | 0.00 | 0.00 | 0.00 | 92 | 1013.9 |
| 20260905014001 | 79 | 289 | 0.0 | 0.0 | 0.00 | 0.00 | 0.00 | 92 | 1013.9 |
| 20260905013800 | 79 | 289 | 0.0 | 0.0 | 0.00 | 0.00 | 0.00 | 92 | 1013.9 |
| 20260905013601 | 79 | 289 | 0.0 | 0.0 | 0.00 | 0.00 | 0.00 | 91 | 1013.9 |
| 20260905013400 | 79 | 289 | 0.0 | 0.0 | 0.00 | 0.00 | 0.00 | 91 | 1013.9 |
| 20260905013202 | 79 | 289 | 0.0 | 0.0 | 0.00 | 0.00 | 0.00 | 91 | 1013.9 |
| 20260905013000 | 79 | 289 | 0.0 | 0.0 | 0.00 | 0.00 | 0.00 | 91 | 1013.9 |
| 20260905012801 | 79 | 289 | 0.0 | 0.0 | 0.00 | 0.00 | 0.00 | 91 | 1013.9 |
| 20260905012600 | 79 | 289 | 0.0 | 0.0 | 0.00 | 0.00 | 0.00 | 91 | 1013.9 |
| 20260905012401 | 79 | 289 | 0.0 | 0.0 | 0.00 | 0.00 | 0.00 | 91 | 1013.9 |
| 20260905012001 | 80 | 289 | 0.0 | 0.0 | 0.00 | 0.00 | 0.00 | 91 | 1013.8 |
| 20260905011800 | 80 | 289 | 0.0 | 0.0 | 0.00 | 0.00 | 0.00 | 91 | 1013.8 |
| 20260905011601 | 80 | 289 | 0.0 | 0.0 | 0.00 | 0.00 | 0.00 | 91 | 1013.8 |
| 20260905011400 | 80 | 289 | 0.0 | 0.0 | 0.00 | 0.00 | 0.00 | 90 | 1013.8 |
| 20260905011201 | 80 | 289 | 0.0 | 0.0 | 0.00 | 0.00 | 0.00 | 90 | 1013.8 |
| 20260905011000 | 80 | 289 | 0.0 | 0.0 | 0.00 | 0.00 | 0.00 | 90 | 1013.8 |
| 20260905010801 | 80 | 289 | 0.0 | 0.0 | 0.00 | 0.00 | 0.00 | 89 | 1013.8 |
| 20260905010600 | 80 | 289 | 0.0 | 0.0 | 0.00 | 0.00 | 0.00 | 89 | 1013.8 |
| 20260905010401 | 80 | 289 | 0.0 | 0.0 | 0.00 | 0.00 | 0.00 | 89 | 1013.7 |
| 20260905010200 | 80 | 289 | 0.0 | 0.0 | 0.00 | 0.00 | 0.00 | 89 | 1013.7 |
| 20260905005601 | 81 | 289 | 0.0 | 0.0 | 0.00 | 0.00 | 0.00 | 88 | 1013.6 |
| 20260905005400 | 81 | 289 | 0.0 | 0.0 | 0.00 | 0.00 | 0.00 | 88 | 1013.6 |
| 20260905005200 | 81 | 289 | 0.0 | 0.0 | 0.00 | 0.00 | 0.00 | 87 | 1013.6 |
| 20260905005000 | 81 | 289 | 0.0 | 0.0 | 0.00 | 0.00 | 0.00 | 87 | 1013.6 |
| 20260905004801 | 81 | 289 | 0.0 | 0.0 | 0.00 | 0.00 | 0.00 | 87 | 1013.6 |
| 20260905004600 | 81 | 289 | 0.0 | 0.0 | 0.00 | 0.00 | 0.00 | 87 | 1013.6 |
| 20260905004401 | 81 | 289 | 0.0 | 0.0 | 0.00 | 0.00 | 0.00 | 88 | 1013.6 |
| 20260905004200 | 81 | 289 | 0.0 | 0.0 | 0.00 | 0.00 | 0.00 | 88 | 1013.6 |
| 20260905004002 | 81 | 289 | 0.0 | 0.0 | 0.00 | 0.00 | 0.00 | 88 | 1013.6 |
| 20260905003800 | 82 | 289 | 0.0 | 0.0 | 0.00 | 0.00 | 0.00 | 87 | 1013.5 |
| 20260905003601 | 82 | 289 | 0.0 | 0.0 | 0.00 | 0.00 | 0.00 | 87 | 1013.5 |
| 20260905003000 | 82 | 289 | 0.0 | 0.0 | 0.00 | 0.00 | 0.00 | 85 | 1013.6 |
| 20260905002600 | 83 | 289 | 0.0 | 0.0 | 0.00 | 0.00 | 0.00 | 85 | 1013.5 |
| 20260905002401 | 83 | 289 | 0.0 | 0.0 | 0.00 | 0.00 | 0.00 | 85 | 1013.5 |
| 20260905002200 | 83 | 289 | 0.0 | 0.0 | 0.00 | 0.00 | 0.00 | 83 | 1013.5 |
| 20260905002001 | 83 | 289 | 0.0 | 0.0 | 0.00 | 0.00 | 0.00 | 82 | 1013.4 |
| 20260905001800 | 83 | 289 | 0.0 | 0.0 | 0.00 | 0.00 | 0.00 | 82 | 1013.5 |
| 20260905001400 | 84 | 289 | 0.0 | 0.0 | 0.00 | 0.00 | 0.00 | 82 | 1013.5 |
| 20260905001201 | 84 | 289 | 0.0 | 0.0 | 0.00 | 0.00 | 0.00 | 81 | 1013.4 |
| 20260905000801 | 84 | 289 | 0.0 | 0.0 | 0.00 | 0.00 | 0.00 | 81 | 1013.4 |
| 20260905000602 | 85 | 290 | 0.0 | 0.0 | 0.00 | 0.00 | 0.00 | 81 | 1013.4 |
| 20260905000402 | 85 | 290 | 0.0 | 0.0 | 0.00 | 0.00 | 0.00 | 83 | 1013.4 |
| 20260905000200 | 85 | 290 | 0.0 | 0.0 | 0.00 | 0.00 | 0.00 | 82 | 1013.4 |
| 20260905000004 | 85 | 290 | 0.0 | 0.0 | 0.00 | 0.00 | 0.00 | 82 | 1013.4 |
| 20260904235800 | 86 | 290 | 0.0 | 0.0 | 0.00 | 0.00 | 0.00 | 81 | 1013.4 |
| 20260904235602 | 86 | 290 | 0.0 | 0.0 | 0.00 | 0.00 | 0.00 | 80 | 1013.4 |
| 20260904235400 | 86 | 290 | 0.0 | 0.0 | 0.00 | 0.00 | 0.00 | 79 | 1013.4 |
| 20260904235200 | 86 | 290 | 0.0 | 0.0 | 0.00 | 0.00 | 0.00 | 77 | 1013.4 |
| 20260904235000 | 86 | 290 | 0.0 | 0.0 | 0.00 | 0.00 | 0.00 | 77 | 1013.4 |
| 20260904234800 | 86 | 288 | 0.0 | 0.0 | 0.00 | 0.00 | 0.00 | 76 | 1013.4 |
| 20260904234601 | 87 | 288 | 0.0 | 0.0 | 0.00 | 0.00 | 0.00 | 75 | 1013.4 |
| 20260904234400 | 87 | 288 | 0.0 | 0.0 | 0.00 | 0.00 | 0.00 | 75 | 1013.3 |
| 20260904234200 | 87 | 288 | 0.0 | 0.0 | 0.00 | 0.00 | 0.00 | 75 | 1013.3 |
| 20260904234000 | 87 | 288 | 0.0 | 0.0 | 0.00 | 0.00 | 0.00 | 75 | 1013.3 |
| 20260904233800 | 87 | 288 | 0.0 | 0.0 | 0.00 | 0.00 | 0.00 | 74 | 1013.3 |
| 20260904233602 | 87 | 288 | 0.0 | 0.0 | 0.00 | 0.00 | 0.00 | 74 | 1013.4 |
| 20260904233401 | 88 | 288 | 0.0 | 0.0 | 0.00 | 0.00 | 0.00 | 74 | 1013.4 |
| 20260904233201 | 88 | 288 | 0.0 | 0.0 | 0.00 | 0.00 | 0.00 | 73 | 1013.4 |
| 20260904232801 | 88 | 288 | 0.0 | 0.0 | 0.00 | 0.00 | 0.00 | 73 | 1013.4 |
| 20260904232601 | 89 | 288 | 0.0 | 0.0 | 0.00 | 0.00 | 0.00 | 72 | 1013.4 |
| 20260904232200 | 89 | 288 | 0.0 | 0.0 | 0.00 | 0.00 | 0.00 | 70 | 1013.4 |
| 20260904231800 | 89 | 288 | 0.0 | 0.0 | 0.00 | 0.00 | 0.00 | 70 | 1013.5 |
| 20260904231400 | 90 | 288 | 0.0 | 0.0 | 0.00 | 0.00 | 0.00 | 69 | 1013.5 |
| 20260904231200 | 90 | 288 | 0.0 | 0.0 | 0.00 | 0.00 | 0.00 | 69 | 1013.5 |
| 20260904231000 | 91 | 295 | 0.0 | 0.0 | 0.00 | 0.00 | 0.00 | 67 | 1013.5 |
| 20260904230801 | 91 | 295 | 0.0 | 0.0 | 0.00 | 0.00 | 0.00 | 65 | 1013.5 |
| 20260904230600 | 91 | 316 | 0.0 | 0.0 | 0.00 | 0.00 | 0.00 | 65 | 1013.5 |
| 20260904230401 | 91 | 319 | 0.0 | 0.0 | 0.00 | 0.00 | 0.00 | 64 | 1013.5 |
| 20260904230200 | 92 | 319 | 0.0 | 0.0 | 0.00 | 0.00 | 0.00 | 63 | 1013.5 |
| 20260904230003 | 92 | 319 | 0.0 | 1.0 | 0.00 | 0.00 | 0.00 | 63 | 1013.5 |
| 20260904225600 | 92 | 319 | 0.0 | 3.0 | 0.00 | 0.00 | 0.00 | 62 | 1013.5 |
| 20260904225400 | 92 | 320 | 0.0 | 3.0 | 0.00 | 0.00 | 0.00 | 62 | 1013.5 |
| 20260904225200 | 93 | 290 | 0.0 | 3.0 | 0.00 | 0.00 | 0.00 | 61 | 1013.5 |
| 20260904224800 | 93 | 276 | 0.0 | 0.0 | 0.00 | 0.00 | 0.00 | 59 | 1013.6 |
| 20260904224200 | 94 | 285 | 0.0 | 0.0 | 0.00 | 0.00 | 0.00 | 58 | 1013.7 |
| 20260904224000 | 94 | 285 | 0.0 | 0.0 | 0.00 | 0.00 | 0.00 | 58 | 1013.6 |
| 20260904223801 | 95 | 285 | 0.0 | 0.0 | 0.00 | 0.00 | 0.00 | 58 | 1013.6 |
| 20260904223600 | 95 | 285 | 0.0 | 0.0 | 0.00 | 0.00 | 0.00 | 58 | 1013.6 |
| 20260904223400 | 95 | 284 | 0.0 | 1.0 | 0.00 | 0.00 | 0.00 | 57 | 1013.7 |
| 20260904223001 | 95 | 282 | 0.0 | 2.0 | 0.00 | 0.00 | 0.00 | 57 | 1013.7 |
| 20260904222801 | 95 | 282 | 0.0 | 2.0 | 0.00 | 0.00 | 0.00 | 57 | 1013.7 |
| 20260904222600 | 95 | 276 | 0.0 | 2.0 | 0.00 | 0.00 | 0.00 | 56 | 1013.7 |
| 20260904222401 | 96 | 274 | 0.0 | 2.0 | 0.00 | 0.00 | 0.00 | 55 | 1013.6 |
| 20260904222200 | 96 | 274 | 0.0 | 2.0 | 0.00 | 0.00 | 0.00 | 55 | 1013.6 |
| 20260904221800 | 96 | 274 | 0.0 | 1.0 | 0.00 | 0.00 | 0.00 | 55 | 1013.6 |
| 20260904221601 | 96 | 274 | 0.0 | 1.0 | 0.00 | 0.00 | 0.00 | 55 | 1013.7 |
| 20260904221402 | 96 | 274 | 0.0 | 1.0 | 0.00 | 0.00 | 0.00 | 54 | 1013.7 |
| 20260904221201 | 96 | 274 | 0.0 | 2.0 | 0.00 | 0.00 | 0.00 | 55 | 1013.7 |
| 20260904221000 | 96 | 274 | 0.0 | 2.0 | 0.00 | 0.00 | 0.00 | 56 | 1013.6 |
| 20260904220801 | 96 | 274 | 0.0 | 2.0 | 0.00 | 0.00 | 0.00 | 55 | 1013.6 |
| 20260904220600 | 96 | 276 | 1.0 | 2.0 | 0.00 | 0.00 | 0.00 | 55 | 1013.7 |
| 20260904220401 | 96 | 258 | 1.0 | 2.0 | 0.00 | 0.00 | 0.00 | 52 | 1013.6 |
| 20260904220200 | 96 | 276 | 1.0 | 3.0 | 0.00 | 0.00 | 0.00 | 54 | 1013.6 |
| 20260904220004 | 96 | 299 | 1.0 | 3.0 | 0.00 | 0.00 | 0.00 | 53 | 1013.6 |
| 20260904215800 | 96 | 300 | 1.0 | 3.0 | 0.00 | 0.00 | 0.00 | 52 | 1013.7 |
| 20260904215600 | 96 | 326 | 1.0 | 3.0 | 0.00 | 0.00 | 0.00 | 54 | 1013.7 |
| 20260904215400 | 96 | 326 | 1.0 | 3.0 | 0.00 | 0.00 | 0.00 | 52 | 1013.7 |
| 20260904215200 | 97 | 268 | 0.0 | 4.0 | 0.00 | 0.00 | 0.00 | 55 | 1013.7 |
| 20260904215000 | 97 | 268 | 0.0 | 4.0 | 0.00 | 0.00 | 0.00 | 52 | 1013.7 |
| 20260904214600 | 97 | 289 | 1.0 | 4.0 | 0.00 | 0.00 | 0.00 | 53 | 1013.7 |
| 20260904214400 | 97 | 255 | 0.0 | 2.0 | 0.00 | 0.00 | 0.00 | 54 | 1013.7 |
| 20260904214200 | 97 | 266 | 1.0 | 2.0 | 0.00 | 0.00 | 0.00 | 55 | 1013.7 |
| 20260904214000 | 96 | 286 | 1.0 | 3.0 | 0.00 | 0.00 | 0.00 | 55 | 1013.8 |
| 20260904213800 | 96 | 326 | 1.0 | 3.0 | 0.00 | 0.00 | 0.00 | 52 | 1013.8 |
| 20260904213600 | 96 | 285 | 2.0 | 3.0 | 0.00 | 0.00 | 0.00 | 53 | 1013.7 |
| 20260904213400 | 96 | 218 | 2.0 | 4.0 | 0.00 | 0.00 | 0.00 | 53 | 1013.8 |
| 20260904213200 | 97 | 297 | 1.0 | 4.0 | 0.00 | 0.00 | 0.00 | 52 | 1013.8 |
| 20260904212601 | 97 | 319 | 1.0 | 3.0 | 0.00 | 0.00 | 0.00 | 54 | 1013.8 |
| 20260904212401 | 97 | 215 | 1.0 | 3.0 | 0.00 | 0.00 | 0.00 | 53 | 1013.7 |
| 20260904212200 | 97 | 249 | 1.0 | 3.0 | 0.00 | 0.00 | 0.00 | 56 | 1013.7 |
| 20260904211601 | 97 | 255 | 0.0 | 3.0 | 0.00 | 0.00 | 0.00 | 55 | 1013.8 |
| 20260904211201 | 96 | 10 | 1.0 | 4.0 | 0.00 | 0.00 | 0.00 | 55 | 1013.8 |
| 20260904211000 | 96 | 309 | 1.0 | 4.0 | 0.00 | 0.00 | 0.00 | 53 | 1013.8 |
| 20260904210800 | 96 | 340 | 1.0 | 4.0 | 0.00 | 0.00 | 0.00 | 54 | 1013.8 |
| 20260904210600 | 96 | 334 | 1.0 | 4.0 | 0.00 | 0.00 | 0.00 | 52 | 1013.8 |
| 20260904210200 | 97 | 214 | 1.0 | 3.0 | 0.00 | 0.00 | 0.00 | 55 | 1013.9 |
| 20260904210003 | 96 | 249 | 1.0 | 4.0 | 0.00 | 0.00 | 0.00 | 52 | 1013.9 |
| 20260904205800 | 96 | 288 | 1.0 | 4.0 | 0.00 | 0.00 | 0.00 | 52 | 1014.0 |
| 20260904205601 | 96 | 233 | 1.0 | 4.0 | 0.00 | 0.00 | 0.00 | 56 | 1014.0 |
| 20260904205400 | 96 | 255 | 2.0 | 6.0 | 0.00 | 0.00 | 0.00 | 54 | 1013.9 |
| 20260904205201 | 96 | 227 | 2.0 | 6.0 | 0.00 | 0.00 | 0.00 | 53 | 1014.0 |
| 20260904205000 | 96 | 340 | 2.0 | 6.0 | 0.00 | 0.00 | 0.00 | 54 | 1014.0 |
| 20260904204800 | 96 | 288 | 3.0 | 6.0 | 0.00 | 0.00 | 0.00 | 53 | 1014.1 |
| 20260904204401 | 96 | 207 | 2.0 | 6.0 | 0.00 | 0.00 | 0.00 | 56 | 1014.1 |
| 20260904204200 | 97 | 45 | 2.0 | 6.0 | 0.00 | 0.00 | 0.00 | 55 | 1014.1 |
| 20260904204001 | 97 | 72 | 2.0 | 6.0 | 0.00 | 0.00 | 0.00 | 52 | 1014.1 |
| 20260904203800 | 97 | 70 | 2.0 | 5.0 | 0.00 | 0.00 | 0.00 | 55 | 1014.1 |
| 20260904203600 | 97 | 255 | 1.0 | 6.0 | 0.00 | 0.00 | 0.00 | 52 | 1014.1 |
| 20260904203400 | 97 | 1 | 2.0 | 6.0 | 0.00 | 0.00 | 0.00 | 53 | 1014.2 |
| 20260904203201 | 97 | 297 | 2.0 | 6.0 | 0.00 | 0.00 | 0.00 | 56 | 1014.2 |
| 20260904202559 | 96 | 279 | 2.0 | 5.0 | 0.00 | 0.00 | 0.00 | 53 | 1014.2 |
| 20260904202159 | 97 | 293 | 2.0 | 6.0 | 0.00 | 0.00 | 0.00 | 53 | 1014.2 |
| 20260904202000 | 97 | 44 | 3.0 | 6.0 | 0.00 | 0.00 | 0.00 | 56 | 1014.3 |
| 20260904201800 | 96 | 200 | 2.0 | 6.0 | 0.00 | 0.00 | 0.00 | 55 | 1014.3 |
| 20260904201200 | 97 | 15 | 2.0 | 6.0 | 0.00 | 0.00 | 0.00 | 55 | 1014.4 |
| 20260904201000 | 97 | 57 | 1.0 | 5.0 | 0.00 | 0.00 | 0.00 | 55 | 1014.4 |
| 20260904200800 | 97 | 360 | 1.0 | 5.0 | 0.00 | 0.00 | 0.00 | 55 | 1014.4 |
| 20260904200600 | 97 | 287 | 1.0 | 5.0 | 0.00 | 0.00 | 0.00 | 56 | 1014.4 |
| 20260904200359 | 96 | 43 | 2.0 | 5.0 | 0.00 | 0.00 | 0.00 | 55 | 1014.5 |
| 20260904200159 | 96 | 41 | 2.0 | 8.0 | 0.00 | 0.00 | 0.00 | 57 | 1014.4 |